User: anonymous   Login
Location: Liscomb Game Sanctuary
(45.1633°N, 62.5575°W)
Time: 09:41:36
(UTC-03:00)
Language:

Cosmos 921 Rocket - Orbit

View from above orbital plane
View from above orbital plane
View from above satellite
View from above satellite

Ground track
Ground track

The orbit data is extracted from the following two-line orbital elements,

1 10096U 77055B   18267.44996762 +.00000032 +00000-0 +54771-5 0  9995
2 10096 075.8325 254.9559 0041753 104.4845 256.0984 14.88634943231328
Epoch (UTC): 24 September 2018 10:47:57
Eccentricity: 0.0041753
inclination: 75.8325°
perigee height: 573 km
apogee height: 631 km
right ascension of ascending node: 254.9559°
argument of perigee: 104.4845°
revolutions per day: 14.88634943
mean anomaly at epoch: 256.0984°
orbit number at epoch: 23132

The dashed part of the orbit path shows where the satellite is in the earth's shadow,  

DLR